Szeged, Hungary

12:51 AM CET on January 20, 2018 (GMT +0100)
Szeged

Weather History for LHUD - September, 2013

Change the Weather History Date:

Saturday, September 21, 2013

  Actual Average (LRAR) Record (LRAR)
Temperature  
Mean Temperature 60 °F -  
Max Temperature 69 °F 67 °F 89 °F (2000)
Min Temperature 52 °F 45 °F 39 °F (1997)
Degree Days  
Heating Degree Days 4    
Growing Degree Days 10 (Base 50)    
Moisture  
Dew Point 49 °F    
Average Humidity 68    
Maximum Humidity 88    
Minimum Humidity 35    
Precipitation  
Precipitation 0.00 in 0.04 in - ()
Sea Level Pressure  
Sea Level Pressure 30.14 in    
Wind  
Wind Speed 10 mph ()    
Max Wind Speed 20 mph    
Max Gust Speed 30 mph    
Visibility 6.2 miles    
Events Rain    
Averages and records for this station are not official NWS values.
T = Trace of Precipitation, MM = Missing Value Source: Averaged Metar Reports

Daily Weather History Graph

Daily Weather History Graph

Search for Another Location

Airport or City:

Trip Planner

Search our weather history database for the weather conditions in past years. The results will help you decide how hot, cold, wet, or windy it might be!

Date:

Astronomy

Sep. 21, 2013 Rise Set
Actual Time 6:25 AM CEST 6:39 PM CEST
Civil Twilight 5:55 AM CEST 7:09 PM CEST
Nautical Twilight 5:19 AM CEST 7:44 PM CEST
Astronomical Twilight 4:43 AM CEST 8:20 PM CEST
Moon 7:28 PM CEST (9/21) 8:33 AM CEST (9/21)
Length of Visible Light 13h 14m
Length of Day
12h 14m
Waning Gibbous, 95% of the Moon is Illuminated
Sep 21
Waning Gibbous
Sep 27
Last Quarter
Oct 5
New
Oct 12
First Quarter
Oct 19
Full

Hourly Weather History & Observations

Time (CEST) Temp. Dew Point Humidity Pressure Visibility Wind Dir Wind Speed Gust Speed Precip Events Conditions
12:45 AM 55.4 °F 50.0 °F 82% 30.09 in - NW 4.6 mph - N/A   Clear
1:45 AM 55.4 °F 50.0 °F 82% 30.06 in - WSW 4.6 mph - N/A   Clear
2:00 AM 55 °F 50 °F 79% 30.08 in 25 mi WSW 4.5 mph - - Rain Light Rain Showers
2:45 AM 53.6 °F 50.0 °F 88% 30.06 in - West 5.8 mph - N/A   Clear
3:45 AM 51.8 °F 48.2 °F 88% 30.06 in - West 6.9 mph - N/A   Clear
4:45 AM 53.6 °F 50.0 °F 88% 30.06 in - WNW 8.1 mph - N/A   Clear
5:45 AM 53.6 °F 50.0 °F 88% 30.09 in - WNW 9.2 mph - N/A   Clear
6:15 AM 55.4 °F 50.0 °F 82% 30.09 in - WNW 8.1 mph - N/A   Clear
6:45 AM 53.6 °F 50.0 °F 88% 30.09 in - WNW 8.1 mph - N/A   Clear
7:15 AM 55.4 °F 50.0 °F 82% 30.09 in - West 9.2 mph - N/A   Clear
7:45 AM 55.4 °F 50.0 °F 82% 30.09 in - WNW 9.2 mph - N/A   Clear
8:00 AM 55 °F 50 °F 79% 30.10 in 22 mi WNW 8.9 mph - -   Partly Cloudy
8:15 AM 57.2 °F 50.0 °F 77% 30.09 in - NW 13.8 mph - N/A   Clear
8:45 AM 57.2 °F 50.0 °F 77% 30.09 in - WNW 13.8 mph - N/A   Clear
9:15 AM 59.0 °F 50.0 °F 72% 30.12 in - NW 16.1 mph - N/A   Clear
9:45 AM 60.8 °F 51.8 °F 72% 30.12 in 6.2 mi NW 16.1 mph - N/A   Mostly Cloudy
10:15 AM 62.6 °F 51.8 °F 68% 30.12 in 6.2 mi NW 17.3 mph - N/A   Partly Cloudy
10:37 AM 62.6 °F 51.8 °F 68% 30.12 in - NW 16.1 mph 29.9 mph N/A   Unknown
10:38 AM 62.6 °F 51.8 °F 68% 30.12 in 6.2 mi NW 16.1 mph 28.8 mph N/A   Partly Cloudy
10:45 AM 62.6 °F 51.8 °F 68% 30.12 in 6.2 mi NW 16.1 mph 28.8 mph N/A   Partly Cloudy
11:15 AM 64.4 °F 50.0 °F 59% 30.12 in 6.2 mi WNW 17.3 mph - N/A   Partly Cloudy
11:45 AM 64.4 °F 50.0 °F 59% 30.12 in 6.2 mi NW 15.0 mph - N/A   Partly Cloudy
12:15 PM 66.2 °F 50.0 °F 56% 30.12 in 6.2 mi NW 17.3 mph - N/A   Scattered Clouds
12:45 PM 68.0 °F 50.0 °F 52% 30.12 in 6.2 mi NW 17.3 mph - N/A   Scattered Clouds
1:15 PM 68.0 °F 50.0 °F 52% 30.15 in 6.2 mi NW 17.3 mph - N/A   Scattered Clouds
1:45 PM 68.0 °F 46.4 °F 46% 30.15 in 6.2 mi NW 17.3 mph - N/A   Scattered Clouds
2:00 PM 68 °F 47 °F 35% 30.13 in 31 mi NW 17.9 mph - -   Partly Cloudy
2:15 PM 68.0 °F 48.2 °F 49% 30.15 in 6.2 mi NW 18.4 mph - N/A   Scattered Clouds
2:45 PM 68.0 °F 48.2 °F 49% 30.12 in 6.2 mi WNW 16.1 mph - N/A   Scattered Clouds
3:15 PM 69.8 °F 48.2 °F 46% 30.12 in 6.2 mi NW 19.6 mph - N/A   Scattered Clouds
3:45 PM 68.0 °F 48.2 °F 49% 30.15 in 6.2 mi NW 18.4 mph - N/A   Scattered Clouds
4:15 PM 68.0 °F 48.2 °F 49% 30.15 in 6.2 mi NW 16.1 mph - N/A   Partly Cloudy
4:45 PM 68.0 °F 48.2 °F 49% 30.15 in 6.2 mi WNW 17.3 mph - N/A   Partly Cloudy
5:15 PM 68.0 °F 46.4 °F 46% 30.15 in 6.2 mi NW 16.1 mph - N/A   Partly Cloudy
5:45 PM 68.0 °F 46.4 °F 46% 30.15 in 6.2 mi NW 13.8 mph - N/A   Partly Cloudy
6:15 PM 66.2 °F 46.4 °F 49% 30.15 in 6.2 mi NW 12.7 mph - N/A   Partly Cloudy
6:45 PM 64.4 °F 48.2 °F 56% 30.18 in 6.2 mi NW 10.4 mph - N/A   Scattered Clouds
7:15 PM 60.8 °F 50.0 °F 68% 30.18 in 6.2 mi NNE 9.2 mph - N/A   Partly Cloudy
7:45 PM 59.0 °F 50.0 °F 72% 30.21 in - North 3.5 mph - N/A   Clear
8:00 PM 59 °F 50 °F 63% 30.20 in 25 mi North 4.5 mph - -   Partly Cloudy
8:15 PM 55.4 °F 48.2 °F 77% 30.21 in - West 4.6 mph - N/A   Clear
8:45 PM 55.4 °F 48.2 °F 77% 30.21 in - NW 3.5 mph - N/A   Clear
9:15 PM 53.6 °F 48.2 °F 82% 30.21 in 6.2 mi WNW 4.6 mph - N/A   Partly Cloudy
9:41 PM 57.2 °F 50.0 °F 77% 30.24 in 6.2 mi NW 5.8 mph - N/A Rain Light Rain Showers
9:45 PM 57.2 °F 51.8 °F 82% 30.21 in 6.2 mi NW 5.8 mph - N/A Rain Light Rain Showers
10:45 PM 55.4 °F 51.8 °F 88% 30.24 in - NNW 5.8 mph - N/A   Clear
11:45 PM 53.6 °F 50.0 °F 88% 30.24 in - NW 5.8 mph - N/A   Clear